Terminal Aerodrome Forecast
Issued by NWS

Home | Current Version | Previous Version | Text Only | Print | Product List | Glossary On
Versions: 1 2 3 4 5 6 7 8 9 10 11 12 13 14 15 16
418
FTUS46 KSTO 091425 AAA
TAFSCK
TAF AMD
KSCK 091425Z 0914/1012 VRB04KT P6SM SKC
      TEMPO 0914/0917 4SM BR BCFG SCT002
     FM092100 33003KT P6SM SKC
     FM101100 VRB03KT 2SM BR BCFG SCT002=

USA.gov is the U.S. government's official web portal to all federal, state and local government web resources and services.